TimeMST,TemperatureF,Dew PointF,Humidity,Sea Level PressureIn,VisibilityMPH,Wind Direction,Wind SpeedMPH,Gust SpeedMPH,PrecipitationIn,Events,Conditions,WindDirDegrees,DateUTC
12:00 AM,-9.4,-14.8,77,30.54,-9999.0,North,38.0,-,N/A,,Unknown,0,2013-01-19 07:00:00
1:00 AM,-9.2,-14.4,78,30.55,-9999.0,North,34.5,-,N/A,,Unknown,0,2013-01-19 08:00:00
2:00 AM,-9.9,-14.8,79,30.57,-9999.0,North,38.0,-,N/A,,Unknown,0,2013-01-19 09:00:00
3:00 AM,-10.3,-15.2,79,30.58,-9999.0,North,6.9,-,N/A,,Unknown,0,2013-01-19 10:00:00
4:00 AM,-9.4,-14.4,78,30.61,-9999.0,North,32.2,-,N/A,,Unknown,0,2013-01-19 11:00:00
5:00 AM,-9,-15,63,30.64,,Calm,Calm,,,,,50,2013-01-19 12:00:00
5:00 AM,-9.0,-15.0,75,30.64,-9999.0,North,5.8,-,N/A,,Unknown,0,2013-01-19 12:00:00
6:00 AM,-8.9,-15.0,75,30.66,-9999.0,North,5.8,-,N/A,,Unknown,0,2013-01-19 13:00:00
7:00 AM,-9.6,-15.0,77,30.70,-9999.0,North,3.5,-,N/A,,Unknown,0,2013-01-19 14:00:00
8:00 AM,-9.2,-14.6,77,30.73,-9999.0,North,4.6,-,N/A,,Unknown,0,2013-01-19 15:00:00
9:00 AM,-12.6,-18.0,77,30.77,-9999.0,North,4.6,-,N/A,,Unknown,0,2013-01-19 16:00:00
10:00 AM,-18.9,-25.2,73,30.80,-9999.0,North,27.6,-,N/A,,Unknown,0,2013-01-19 17:00:00
11:00 AM,-24.5,-31.0,72,30.85,-9999.0,North,38.0,-,N/A,,Unknown,0,2013-01-19 18:00:00
1:00 PM,-15.5,-22.7,70,30.90,-9999.0,North,13.8,-,N/A,,Unknown,0,2013-01-19 20:00:00
2:00 PM,-9.2,-17.0,69,30.91,-9999.0,North,24.2,-,N/A,,Unknown,0,2013-01-19 21:00:00
3:00 PM,-19.1,-25.8,71,30.94,-9999.0,North,25.3,-,N/A,,Unknown,0,2013-01-19 22:00:00
4:00 PM,-27.6,-34.2,71,30.95,-9999.0,North,8.1,-,N/A,,Unknown,0,2013-01-19 23:00:00
5:00 PM,-31,-37,56,30.96,,Calm,Calm,,,,,180,2013-01-20 00:00:00
5:00 PM,-30.6,-37.1,71,30.96,-9999.0,North,20.7,-,N/A,,Unknown,0,2013-01-20 00:00:00
6:00 PM,-36.4,-44.5,64,30.97,-9999.0,North,27.6,-,N/A,,Unknown,0,2013-01-20 01:00:00
7:00 PM,-35.9,-43.2,67,30.99,-9999.0,North,5.8,-,N/A,,Unknown,0,2013-01-20 02:00:00
8:00 PM,-36.9,-44.7,65,31.00,-9999.0,North,38.0,-,N/A,,Unknown,0,2013-01-20 03:00:00
9:00 PM,-39.5,-47.7,63,31.00,-9999.0,North,29.9,-,N/A,,Unknown,0,2013-01-20 04:00:00
10:00 PM,-39.6,-47.9,63,31.02,-9999.0,North,5.8,-,N/A,,Unknown,0,2013-01-20 05:00:00
11:00 PM,-41,-48,47,31.01,,Calm,Calm,,,,,0,2013-01-20 06:00:00
11:00 PM,-40.5,-48.5,64,31.01,-9999.0,North,41.4,-,N/A,,Unknown,0,2013-01-20 06:00:00